GFSFLT1_925_temp_000.txt.gz
Temp
22 22 21 21 21 20 20 20 19 19 18 18 17 17 17 16 16 16 16 15 15 14 14 14 14 14 13 13 13 13 12 12
19 20 20 20 20 21 20 20 20 19 18 18 17 17 17 17 16 16 15 16 15 15 14 14 14 13 13 13 13 12 12 12
18 20 20 21 21 21 20 20 20 19 18 18 18 18 17 17 17 16 16 15 15 15 15 14 14 13 13 13 12 12 12 12
18 19 20 21 21 21 21 21 20 20 19 18 18 17 16 16 16 16 16 16 15 15 15 14 14 13 13 13 12 11 11 11
20 20 19 20 22 21 21 21 20 19 19 18 18 17 16 17 17 17 16 16 15 15 14 14 14 13 12 11 11 10 10 9
20 20 20 21 20 21 20 20 20 19 19 18 17 17 17 17 17 16 16 16 15 15 14 13 12 12 11 10 10 9 9 8
18 20 19 19 19 19 19 19 18 18 18 18 17 17 17 16 16 16 15 15 14 14 12 12 11 10 10 10 9 8 8 8
17 19 16 17 18 17 17 17 17 17 17 17 17 17 16 15 15 14 13 12 11 10 10 9 8 7 7 6 7 7 7 7
17 14 15 16 16 16 15 16 15 16 16 16 16 16 15 15 14 12 10 10 9 8 7 6 5 5 5 5 5 5 5 7
13 16 15 14 14 14 14 14 14 14 14 15 14 15 14 14 12 10 9 7 6 6 6 5 4 4 5 4 5 6 6 6
14 14 14 15 15 15 14 14 13 12 13 13 13 12 12 12 10 9 7 6 6 7 6 4 3 4 5 5 5 6 6 6
12 13 14 14 14 14 13 12 11 12 12 12 11 10 10 9 8 7 7 6 7 7 6 5 5 5 5 5 5 5 4 4
11 13 13 13 12 12 12 11 11 11 11 11 10 9 8 8 7 6 6 6 6 6 5 5 5 5 5 4 4 4 4 3
11 11 12 12 12 12 11 10 10 10 10 10 8 8 7 7 6 6 6 6 6 5 5 5 5 5 4 4 4 3 3 3
11 10 11 11 11 11 10 9 9 8 9 8 7 6 6 6 5 5 5 5 5 5 5 5 4 4 4 3 3 2 2 1
10 10 9 10 10 10 9 8 8 7 8 7 6 5 5 5 4 4 3 5 5 5 4 4 3 3 2 2 1 -0 -1 -1
11 10 10 10 10 9 8 7 6 6 6 5 5 4 4 4 2 3 4 4 4 4 4 3 2 2 1 -1 -1 -2 -2 -3
10 9 9 9 8 8 7 6 5 5 4 3 3 3 2 3 3 4 4 3 3 3 2 2 1 0 -1 -1 -2 -3 -3 -4
9 9 8 8 8 7 6 6 5 5 4 4 4 4 3 3 3 3 3 3 2 2 1 1 -1 -1 -2 -3 -3 -4 -4 -4

GFSFLT1_925_temp_003.txt.gz
Temp
19 21 21 21 20 20 21 20 20 19 19 18 18 18 17 17 17 17 16 15 15 15 15 14 14 14 14 13 13 13 13 12
17 18 19 19 20 20 21 20 20 19 19 18 18 18 18 17 17 17 17 17 16 15 15 15 14 14 14 13 13 12 12 12
16 18 20 20 20 20 20 21 20 20 20 20 19 18 18 18 17 17 17 16 16 15 15 15 15 14 13 13 13 12 12 11
16 17 19 20 20 20 20 21 20 20 19 19 18 18 17 17 18 17 17 16 16 15 15 15 15 14 14 13 13 12 11 10
17 18 19 19 20 20 20 19 19 18 17 17 17 16 15 16 17 17 17 17 16 16 15 15 14 14 13 13 12 11 11 9
19 19 19 18 19 19 18 18 18 17 17 17 16 16 16 16 15 15 15 15 14 15 15 14 13 13 12 11 10 10 9 9
17 16 17 17 17 17 17 17 16 16 15 16 15 15 16 14 15 15 15 14 14 13 13 12 12 10 9 8 8 7 7 7
15 14 15 15 15 15 15 15 15 14 15 15 15 15 15 14 14 14 13 12 10 9 10 9 8 7 6 5 5 4 5 5
13 13 13 14 14 14 14 14 13 13 13 13 14 14 14 14 13 13 12 9 8 7 7 6 5 4 4 4 4 5 4 4
14 14 14 14 14 14 14 13 13 12 12 12 12 12 12 13 12 11 9 7 6 5 6 5 5 5 4 4 2 2 3 4
12 12 14 14 14 14 13 12 12 11 11 11 11 11 11 10 11 10 7 6 6 7 7 7 6 5 4 4 4 4 4 4
11 12 13 13 13 12 12 11 11 10 10 10 10 10 9 8 8 8 6 6 6 6 7 7 5 5 5 4 4 4 4 4
11 12 12 12 12 11 11 10 10 10 9 9 9 9 8 7 6 6 6 6 6 5 5 5 5 5 5 4 4 3 3 3
10 10 11 11 11 11 10 10 9 8 8 7 8 8 6 6 5 5 5 5 5 5 5 5 5 4 4 3 3 3 2 2
10 10 10 11 10 10 10 9 8 7 7 6 6 5 5 5 4 4 3 4 4 5 5 4 4 4 3 3 2 2 1 -0
10 10 9 10 9 9 8 8 7 6 5 4 4 3 3 3 2 3 3 2 4 4 4 4 3 3 2 2 0 -1 -1 -2
10 9 9 8 8 8 7 7 6 5 4 3 3 2 1 1 1 1 2 1 1 3 3 3 2 2 0 -1 -2 -2 -2 -3
9 8 8 8 8 6 6 5 5 4 3 3 3 3 2 2 1 2 2 3 3 2 2 1 1 0 -1 -2 -3 -3 -3 -4
9 8 7 7 6 6 5 5 4 3 2 3 3 3 3 3 3 2 2 2 1 0 0 -0 -1 -2 -3 -3 -4 -4 -5 -5

GFSFLT1_925_temp_009.txt.gz
Temp
17 19 20 20 19 19 19 20 20 19 18 18 18 18 18 18 17 17 17 16 16 15 15 15 15 15 15 14 13 12 12 12
17 18 19 19 19 20 20 20 19 17 16 17 17 17 17 17 17 17 16 16 15 15 15 14 14 13 14 14 13 12 11 11
16 16 17 18 19 18 17 17 16 16 16 15 15 15 16 16 16 16 16 16 16 14 14 13 13 11 11 12 11 11 11 10
19 18 16 17 16 16 16 16 15 15 15 15 15 15 14 14 14 14 14 14 14 14 14 13 12 11 10 11 11 11 12 11
18 17 15 14 15 15 15 14 14 14 14 14 13 12 12 12 11 11 12 13 13 13 13 13 12 10 9 9 10 10 10 12
15 14 13 12 14 14 14 14 14 14 13 13 12 11 10 10 10 10 10 11 11 12 12 12 12 11 9 8 8 7 8 9
14 13 13 13 14 14 15 14 14 14 13 12 11 10 9 9 10 9 10 9 9 10 10 10 9 8 6 5 5 5 5 6
14 14 14 13 14 14 13 13 12 12 11 11 11 10 9 9 9 9 8 8 7 7 7 6 5 4 4 3 3 3 2 2
14 13 13 13 12 12 11 11 11 11 12 11 11 10 9 8 7 7 7 6 5 6 5 4 5 5 5 5 4 3 2 1
14 14 13 12 12 12 12 12 12 12 11 10 9 9 8 7 6 6 5 4 4 4 5 5 5 4 5 4 4 4 2 1
15 15 13 12 12 12 12 11 10 10 9 8 7 7 6 6 6 6 4 4 3 4 4 4 4 3 3 3 3 2 1 1
15 14 13 11 11 11 10 9 9 8 8 7 7 6 5 5 4 3 3 4 4 4 3 3 2 1 2 4 4 3 2 2
13 12 11 11 11 10 10 8 7 7 7 6 4 4 5 3 2 3 3 3 3 3 3 1 1 2 2 2 2 3 2 2
13 12 11 11 10 9 8 7 7 6 5 4 4 4 4 2 2 1 2 2 2 2 1 0 0 1 1 2 2 2 2 1
12 11 10 10 9 8 7 6 6 5 4 4 3 3 2 1 1 1 1 1 1 1 0 1 0 1 1 1 1 0 -0 -1
10 10 9 9 8 7 6 6 5 4 3 3 3 2 2 2 2 2 2 2 2 1 1 0 0 -0 -0 -1 -1 -1 -1 -1
9 8 8 8 7 6 5 5 4 3 3 2 2 2 2 2 2 1 1 1 0 1 0 0 -0 -1 -1 -2 -2 -2 -2 -2
8 9 9 7 6 5 5 4 4 3 2 2 2 2 2 1 1 1 0 -0 -1 -1 -1 -2 -2 -3 -3 -3 -4 -4 -3 -4
9 9 7 7 6 5 4 4 3 3 2 2 2 1 1 0 -0 -0 -1 -1 -2 -2 -2 -3 -3 -3 -4 -5 -5 -5 -5 -5

GFSFLT1_925_temp_015.txt.gz
Temp
27 26 25 25 24 24 24 22 22 21 21 20 20 20 20 20 20 19 18 17 16 16 16 16 16 16 16 17 16 16 16 16
25 24 23 23 22 23 23 21 19 20 21 20 21 20 20 20 19 18 17 17 16 15 16 16 15 16 16 15 15 16 16 16
24 23 22 21 21 21 20 20 19 19 20 19 18 18 19 18 18 17 17 16 15 15 15 15 15 15 14 14 14 15 15 15
24 23 21 20 20 20 20 19 18 17 18 19 19 19 19 19 18 17 16 15 14 14 14 14 13 13 14 14 14 14 15 15
24 23 21 20 19 18 18 18 18 17 16 17 16 17 17 17 16 16 15 14 14 14 14 13 12 11 12 12 13 13 13 13
23 22 20 19 19 18 18 18 18 17 16 15 15 15 15 15 15 14 13 14 13 13 13 12 11 11 11 10 10 10 10 11
22 21 21 20 18 18 18 18 18 17 16 15 14 14 14 14 14 13 13 12 12 11 11 10 10 10 10 9 8 6 6 5
22 22 21 20 19 18 18 18 18 17 16 15 15 14 13 13 12 12 10 10 10 10 9 9 9 9 8 7 6 5 3 2
21 21 20 20 19 18 17 17 17 17 16 15 14 13 12 11 10 9 9 9 9 9 9 8 7 6 5 4 3 3 2 2
21 21 20 19 18 18 16 16 16 16 15 13 12 11 11 10 9 8 8 8 8 8 7 6 6 5 4 3 3 3 3 2
21 20 19 18 17 16 16 15 15 14 13 12 11 10 9 8 8 8 7 7 7 7 6 6 4 3 3 3 2 3 3 3
21 20 18 17 17 16 15 15 14 13 12 11 10 10 9 8 8 7 6 6 6 6 5 4 3 2 2 2 2 2 2 2
20 18 17 17 16 15 14 14 13 12 11 11 10 10 9 8 7 6 5 5 5 5 3 2 2 2 2 2 1 2 2 2
18 17 16 15 15 14 14 13 11 11 10 10 10 9 8 6 6 5 5 5 5 5 4 3 3 3 4 4 4 3 3 3
16 16 15 14 14 14 13 12 11 10 10 9 9 8 7 6 6 5 5 5 5 5 5 4 4 4 3 3 2 2 2 2
15 14 13 13 14 13 12 11 10 10 9 9 9 8 7 5 5 5 5 5 4 4 4 4 3 3 2 0 -0 -0 -0 1
13 13 13 14 13 12 12 11 10 9 9 9 8 7 5 5 5 5 5 4 4 3 3 3 3 2 0 -1 -2 -2 -2 -1
12 13 13 13 12 12 12 11 10 10 9 9 8 6 5 5 4 5 4 4 3 3 3 2 2 1 -1 -2 -3 -3 -3 -2
13 13 12 12 12 12 11 11 10 10 9 8 6 6 5 5 4 4 4 3 3 3 2 1 1 0 -1 -4 -5 -4 -3 -3

GFSFLT1_925_temp_021.txt.gz
Temp
21 22 22 23 22 21 20 19 19 20 20 21 20 19 19 19 18 18 18 17 17 16 15 15 14 14 14 14 14 13 13 13
20 20 21 20 20 20 20 20 20 20 20 19 19 18 19 19 18 17 17 15 15 14 14 14 13 13 13 13 12 12 12 12
19 20 20 20 20 19 19 19 19 18 18 18 17 17 17 16 16 15 14 14 13 13 13 12 12 11 11 11 11 11 11 10
18 18 19 19 19 19 18 18 18 18 17 18 17 17 17 16 15 14 13 13 12 11 11 11 10 10 10 10 10 9 8 8
18 17 18 18 18 18 18 18 18 18 17 16 15 15 14 14 13 12 12 11 11 10 10 10 9 9 9 9 8 8 8 6
16 17 18 18 18 18 18 18 17 17 17 16 15 14 13 12 11 11 10 10 10 9 8 8 8 7 7 7 7 6 6 4
18 19 19 18 18 18 18 17 17 16 15 14 14 13 12 11 10 9 9 9 8 8 7 7 7 6 6 5 5 5 4 4
16 17 18 18 18 18 17 16 16 15 14 13 12 12 11 10 9 9 9 8 7 7 7 6 6 5 5 5 4 3 3 4
17 19 19 18 17 17 17 16 16 14 14 12 11 11 10 10 9 9 8 7 6 6 6 5 5 4 4 3 3 3 3 2
17 17 17 17 16 16 16 15 15 13 12 12 11 11 10 10 9 8 7 6 6 5 6 5 5 4 4 3 3 3 3 2
14 15 16 16 16 15 15 15 14 13 12 11 11 10 10 10 8 7 7 6 6 5 5 5 5 4 4 3 3 3 3 3
13 15 16 16 15 15 15 14 13 12 11 11 11 10 10 9 8 7 7 6 5 5 5 5 5 4 4 4 3 3 3 2
14 15 15 14 14 14 14 13 12 12 11 11 10 10 10 9 8 7 6 5 5 5 5 4 4 4 3 3 3 2 2 1
13 13 13 13 13 14 13 13 12 12 11 11 10 10 9 9 7 6 6 5 5 5 4 4 4 3 3 3 2 1 0 -0
11 11 12 13 13 13 13 13 12 12 11 11 10 9 9 8 6 6 5 5 5 4 4 4 3 3 2 2 1 -0 -1 -2
11 10 11 13 13 13 12 12 12 12 10 10 10 9 8 7 6 5 5 5 5 4 4 3 3 2 2 1 -0 -2 -2 -3
11 11 12 12 12 12 12 11 10 10 9 9 9 8 7 6 5 4 2 4 4 4 3 3 2 1 0 -1 -2 -2 -3 -4
10 11 11 12 12 12 10 9 9 9 8 7 7 6 6 5 4 2 1 4 4 3 3 2 1 -0 -1 -2 -2 -3 -4 -4
10 11 11 12 10 9 9 9 9 8 7 5 5 5 4 4 3 0 1 2 2 3 1 1 -0 -1 -2 -2 -3 -4 -5 -5

GFSFLT1_925_temp_024.txt.gz
Temp
17 17 17 19 19 19 19 19 19 19 18 18 18 19 18 17 16 15 15 14 14 14 13 13 13 13 13 12 12 12 11 11
16 17 18 18 17 17 17 17 18 18 18 18 18 16 15 15 15 14 14 13 13 12 12 11 11 11 10 10 10 10 10 10
16 16 17 17 17 17 18 18 18 18 17 16 16 16 15 14 13 13 12 12 12 11 10 10 10 9 10 10 9 9 9 8
15 15 16 17 17 17 18 18 18 18 18 17 17 17 15 13 12 12 11 11 11 10 9 8 8 8 8 8 8 7 7 7
16 16 17 18 18 18 17 17 17 17 16 16 15 14 13 11 11 11 11 10 10 9 8 7 7 7 7 7 6 6 5 4
14 16 18 18 18 18 17 17 17 16 15 15 14 13 12 11 11 11 10 9 8 8 7 7 6 6 5 5 5 4 3 3
15 17 17 17 18 17 17 16 16 16 15 14 14 12 11 11 10 10 9 8 7 7 7 6 5 5 4 4 3 3 3 3
14 15 16 17 17 16 16 15 14 13 13 13 12 11 11 10 10 9 9 8 7 7 6 5 5 5 5 5 4 3 3 3
14 15 15 15 15 15 15 14 13 13 12 11 11 11 10 10 9 8 8 7 6 6 6 5 5 4 4 4 3 3 3 2
12 14 14 15 15 15 15 15 14 13 12 11 11 11 10 10 9 9 8 7 7 6 5 5 5 4 4 4 3 3 3 3
12 13 14 14 14 14 14 13 12 11 11 11 11 11 10 10 9 9 8 7 6 6 5 5 4 4 4 4 3 3 3 2
12 12 13 13 14 14 13 12 12 12 12 12 11 11 10 9 9 9 8 7 6 5 5 5 4 4 3 3 3 2 2 1
11 12 12 13 13 13 12 12 12 12 12 11 11 10 10 9 8 8 7 6 6 5 4 4 4 3 3 3 2 1 1 0
10 11 11 12 12 12 12 12 12 11 11 10 10 10 10 9 8 7 6 5 4 2 4 4 4 3 3 2 2 1 -0 -1
10 10 11 12 12 12 12 11 10 10 9 9 8 8 7 7 7 6 5 3 2 2 4 3 3 3 2 1 1 -0 -1 -2
10 9 10 11 12 12 10 9 9 9 8 8 7 7 7 6 6 5 4 3 1 1 3 3 3 2 1 0 -1 -1 -2 -3
10 10 10 11 10 9 9 9 9 8 8 6 6 5 5 5 4 4 3 2 1 1 2 2 1 0 -1 -1 -2 -3 -3 -4
9 10 10 9 9 9 9 9 8 7 6 5 4 4 4 3 3 2 1 -0 -1 -1 1 1 -0 -1 -2 -3 -3 -3 -4 -5
9 9 9 9 9 9 9 8 7 6 4 4 4 3 3 2 2 -0 -1 -0 0 0 -0 -1 -2 -2 -3 -4 -4 -5 -5 -6

GFSFLT1_925_temp_027.txt.gz
Temp
15 16 17 17 17 17 17 16 16 16 17 17 17 16 15 15 15 14 14 14 13 13 13 12 11 11 11 11 10 10 10 8
14 14 16 17 16 16 17 17 17 17 17 16 16 14 14 14 14 13 13 13 13 12 11 11 10 9 8 8 8 8 8 8
14 15 16 17 17 17 18 18 18 17 17 16 15 14 14 14 13 13 12 12 11 10 10 10 9 8 8 7 7 7 7 6
13 13 16 17 17 18 18 18 18 17 17 17 15 14 13 12 11 11 10 10 10 10 9 8 8 7 7 6 6 5 5 5
14 13 14 16 17 17 17 17 17 17 17 17 17 16 13 11 10 10 10 10 10 9 8 8 7 6 6 5 5 5 4 3
13 14 15 16 15 16 16 16 16 15 15 15 15 14 13 11 11 10 10 9 9 8 8 7 6 5 5 5 4 4 3 3
15 15 16 15 15 15 15 15 15 15 15 14 13 13 11 11 10 11 11 10 9 8 7 7 6 5 5 4 4 3 3 3
13 14 14 14 14 14 15 15 15 14 13 13 12 11 11 11 11 11 10 9 9 8 7 7 6 5 4 4 4 3 3 3
13 13 13 14 15 14 14 14 13 13 12 12 11 11 11 11 10 10 9 9 8 7 7 6 5 5 4 4 3 3 3 3
11 12 13 14 14 14 14 13 12 11 11 11 11 11 11 10 10 9 9 8 7 6 6 5 5 4 4 3 3 3 2 2
10 12 13 13 13 13 14 13 12 12 12 12 12 11 10 10 9 9 9 8 7 6 5 5 4 4 4 3 3 3 2 2
10 11 12 12 12 13 13 12 12 12 12 11 11 10 9 9 9 9 8 7 5 5 4 3 2 3 3 3 3 3 2 1
10 11 12 12 12 12 12 11 11 11 11 10 9 9 8 8 7 7 6 5 5 5 3 2 1 2 3 3 3 2 1 0
9 10 10 11 11 11 11 11 10 10 9 9 9 8 8 7 7 7 6 6 5 5 3 2 2 2 3 2 1 0 -1 -1
9 9 10 11 11 10 10 9 9 9 9 8 8 7 6 6 5 5 5 5 4 3 2 1 1 1 2 1 -0 -1 -2 -2
10 9 10 10 10 9 9 9 9 8 8 7 6 5 5 4 4 4 3 3 1 0 -0 -1 0 1 0 -0 -1 -2 -3 -3
10 10 9 9 8 9 9 9 8 8 7 6 5 5 4 3 2 2 2 1 1 -0 -1 -0 -0 -0 -1 -2 -3 -3 -4 -4
9 8 8 8 9 9 8 8 8 7 6 5 4 3 3 2 1 0 -1 -0 -0 -0 -1 -1 -1 -2 -3 -3 -4 -4 -5 -6
8 8 8 8 8 8 8 8 7 5 5 4 3 2 2 2 1 -1 -1 -1 -1 -1 -1 -2 -2 -3 -4 -5 -5 -6 -7 -7

GFSFLT1_925_temp_030.txt.gz
Temp
13 14 16 17 16 16 15 15 15 13 13 14 15 15 14 14 14 14 14 14 13 13 12 12 12 11 10 9 8 8 7 6
13 13 14 15 15 16 15 15 14 14 14 15 15 14 14 14 14 14 14 13 12 12 11 11 10 9 8 8 7 7 6 6
13 14 15 15 15 15 15 15 15 15 16 16 16 15 14 14 13 12 12 11 11 11 10 10 9 9 8 7 6 6 5 4
12 13 15 15 15 16 16 16 16 17 18 17 16 15 13 12 11 11 11 11 11 10 10 9 8 7 6 6 5 5 4 4
12 13 14 15 16 17 17 17 17 16 16 16 16 15 13 11 11 11 11 11 10 10 9 8 8 7 6 5 5 4 4 3
12 13 14 16 16 16 16 16 16 16 16 15 15 14 13 11 11 11 11 10 10 9 8 8 7 6 5 4 4 3 3 3
13 14 14 15 16 16 16 16 15 15 15 14 14 13 12 11 11 11 10 10 10 9 8 7 7 6 5 4 4 4 3 3
11 12 13 13 13 15 15 14 14 14 13 13 12 12 11 11 11 11 11 10 10 9 8 7 7 6 4 4 3 3 3 2
12 13 13 13 13 14 13 14 14 13 12 12 12 12 11 11 11 10 10 9 9 8 8 6 6 5 4 4 3 3 3 3
11 12 12 12 12 13 13 13 12 12 12 12 12 11 10 9 9 9 9 9 8 7 6 5 4 3 3 2 3 3 3 2
9 10 11 12 12 13 13 12 11 12 11 10 9 9 9 8 8 8 8 7 7 6 5 5 4 3 3 2 3 3 2 2
9 10 11 12 12 12 12 11 12 12 11 10 9 9 8 9 8 7 7 7 6 6 5 4 4 3 2 2 2 2 2 1
9 10 11 11 11 12 12 11 11 10 10 9 9 9 8 7 6 6 6 5 5 5 4 3 3 2 2 1 1 1 0 -0
8 9 10 11 11 11 10 10 9 9 9 9 8 7 6 6 5 5 5 4 3 3 2 1 0 1 0 0 0 -0 -1 -1
8 8 10 9 10 10 9 9 9 9 8 8 7 6 5 5 4 4 3 2 2 2 1 1 -0 -0 0 -0 -1 -1 -2 -2
9 8 9 9 9 9 8 9 8 8 8 7 5 5 4 4 4 3 2 1 0 0 0 -1 -1 -0 -1 -1 -2 -2 -3 -4
9 9 9 8 8 8 8 8 8 8 6 5 4 4 4 3 2 1 1 -0 0 -1 -1 -1 -1 -1 -2 -2 -3 -4 -4 -5
9 9 8 8 8 8 8 8 7 6 5 4 4 4 3 2 1 0 -0 -1 -1 -1 -1 -1 -2 -2 -3 -3 -4 -5 -6 -7
8 8 8 8 8 8 7 7 6 5 4 4 4 3 2 1 1 -0 -0 -1 -1 -1 -2 -2 -2 -3 -4 -5 -6 -6 -7 -8

GFSFLT1_925_temp_033.txt.gz
Temp
13 13 15 15 14 14 14 15 15 17 15 14 13 14 14 14 14 13 13 13 12 12 11 11 11 10 8 8 7 7 6 6
13 12 13 13 13 14 15 16 15 14 13 13 13 13 13 13 13 13 12 12 11 11 11 10 10 9 8 7 7 6 7 5
13 13 13 13 14 15 14 16 16 14 13 14 14 14 13 12 12 11 11 11 11 11 10 10 9 8 8 7 6 6 6 5
14 14 13 13 13 13 14 15 15 15 15 15 14 13 11 10 10 11 11 11 11 11 10 9 9 8 7 7 5 5 6 5
15 14 13 13 14 15 15 15 15 15 14 14 15 13 12 11 11 11 11 11 10 10 9 9 9 8 7 6 5 5 4 5
15 15 14 13 14 15 15 15 14 14 15 14 14 13 12 11 11 11 11 11 10 10 9 9 8 7 6 5 4 3 3 3
15 14 14 13 12 14 15 14 15 14 14 14 13 13 12 12 12 11 11 10 10 9 9 8 7 6 4 4 3 3 3 3
16 14 14 13 14 14 14 15 14 14 13 13 12 12 12 11 11 10 9 9 9 8 7 6 5 4 4 4 3 3 3 2
15 14 14 14 13 13 14 14 13 13 12 12 12 12 11 10 9 9 8 8 7 7 7 6 5 5 5 4 3 2 2 2
15 14 13 12 12 13 13 13 12 12 12 11 11 10 9 9 8 8 8 7 7 7 7 6 5 5 4 3 3 2 2 2
14 13 11 11 11 12 12 12 12 11 11 11 10 9 8 8 8 7 7 7 6 6 6 5 4 3 3 3 2 2 1 1
13 12 11 11 11 11 11 11 11 10 10 9 9 8 8 8 7 7 6 6 5 4 3 3 2 2 1 1 1 1 0 1
12 12 11 11 10 10 10 9 10 10 9 9 9 8 8 7 6 6 5 4 3 2 2 2 1 1 1 1 0 0 0 -0
12 11 11 11 9 9 10 11 10 9 9 9 8 8 7 6 5 4 4 2 1 1 1 1 0 0 -0 -0 0 0 -1 -2
12 11 11 10 10 10 10 9 9 9 9 8 7 6 5 4 4 3 2 1 0 0 0 -0 -0 -1 -1 -1 -1 -2 -2 -2
11 11 10 10 9 9 8 9 8 8 8 7 5 5 4 4 3 2 2 0 -0 -1 -1 -1 -1 -1 -2 -2 -2 -3 -3 -3
11 10 10 9 8 8 8 8 8 8 7 5 5 4 3 3 2 1 0 -0 -1 -1 -1 -1 -2 -2 -2 -2 -3 -3 -4 -4
11 10 9 8 8 8 8 8 7 7 6 5 4 3 3 2 1 0 0 -0 -1 -1 -2 -2 -2 -3 -3 -3 -4 -5 -5 -5
10 9 8 8 7 8 8 7 7 6 5 4 4 3 2 1 0 0 -0 -1 -1 -1 -2 -3 -3 -3 -3 -4 -5 -5 -6 -6